Tracking 19651 objects as of 22-Apr-2019
HD Live streaming from Space Station
objects crossing your sky now

IRIDIUM 69

Track IRIDIUM 69 now!
10-day predictions
IRIDIUM 69 is classified as:


NORAD ID: 25319
Int'l Code: 1998-026A
Perigee: 768.4 km
Apogee: 770.9 km
Inclination: 86.4 °
Period: 100.1 minutes
Semi major axis: 7140 km
RCS: 4.3416 m2 (large)
Launch date: May 2, 1998
Source: United States (US)
Launch site: Taiyaun Space Center, China (TSC)
aabbcc
Your satellite tracking list
Your tracking list is empty




NASA's NSSDC Master Catalog

Two Line Element Set (TLE):
1 25319U 98026A   19111.70088789 +.00000082 +00000-0 +20081-4 0  9990
2 25319 086.3966 322.3844 0001787 148.5777 211.5528 14.38791582099637
Source of the keplerian elements: AFSPC